Location: Street
(51.1247°N, 2.7429°W)
Time: 10:25:04
(UTC+00:00)

Tiros 1 - Pass Details

Date: 05 December 2020
Orbit: 630 x 663 km, 48.4° (Epoch: 21 January)

Event Time Altitude Azimuth Distance (km) Brightness Sun altitude
Rises 12:39:14 0° 207° (SSW) 2,980 12.0 16.0°
Reaches altitude 10° 12:42:03 10° 191° (S) 2,074 12.7 15.9°
Maximum altitude 12:45:33 20° 144° (SE) 1,504 9.9 15.8°
Drops below altitude 10° 12:49:04 10° 97° (E) 2,082 9.8 15.7°
Sets 12:51:55 0° 81° (E) 2,996 10.4 15.6°
